Location: Unspecified
(0.0000°N, 0.0000°E)
Time: 06:33:23
(UTC+00:00)

LightSail 2 - Pass Details

Date: 23 November 2019
Orbit: 696 x 729 km, 24.0° (Epoch: 10 December)

Event Time Altitude Azimuth Distance (km) Brightness Sun altitude
Exits shadow 04:14:37 19° 358° (N) 1,648 6.8 -21.4°
Maximum altitude 04:16:10 22° 23° (NNE) 1,533 6.8 -21.1°
Drops below altitude 10° 04:20:10 10° 73° (ENE) 2,202 8.4 -20.1°
Sets 04:23:07 0° 88° (E) 3,128 9.7 -19.4°
